Riverton, WY

10:51 PM MDT on September 29, 2016 (GMT -0600)
Riverton Regional

Weather History for KRIW - January, 2013

Change the Weather History Date:

Monday, January 28, 2013

  Actual Average Record
Temperature  
Mean Temperature 23 °F 20 °F  
Max Temperature 28 °F 32 °F 46 °F (2005)
Min Temperature 18 °F 9 °F -7 °F (2007)
Degree Days  
Heating Degree Days 42 45  
Month to date heating degree days 1369 1266  
Since 1 July heating degree days 4291 4583  
Cooling Degree Days 0 0  
Month to date cooling degree days 0 0  
Year to date cooling degree days 0 0  
Moisture  
Dew Point 17 °F    
Average Humidity 63    
Maximum Humidity 84    
Minimum Humidity 41    
Precipitation  
Precipitation 0.03 in 0.01 in 0.07 in (2002)
Month to date precipitation 0.11 0.22  
Year to date precipitation 0.11 0.22  
Snow  
Snow 0.50 in - - ()
Month to date snowfall 2.7  
Since 1 July snowfall 10.0  
Snow Depth T in    
Sea Level Pressure  
Sea Level Pressure 29.78 in    
Wind  
Wind Speed 8 mph (NNE)    
Max Wind Speed 24 mph    
Max Gust Speed 31 mph    
Visibility 8 miles    
Events Snow    
T = Trace of Precipitation, MM = Missing Value Source: NWS Daily Summary

Daily Weather History Graph

Daily Weather History Graph

Search for Another Location

Airport or City:

Trip Planner

Search our weather history database for the weather conditions in past years. The results will help you decide how hot, cold, wet, or windy it might be!

Date:

Astronomy

Jan. 28, 2013 Rise Set
Actual Time 7:32 AM MST 5:21 PM MST
Civil Twilight 7:02 AM MST 5:51 PM MST
Nautical Twilight 6:28 AM MST 6:26 PM MST
Astronomical Twilight 5:54 AM MST 6:59 PM MST
Moon 7:23 PM MST (1/28) 7:56 AM MST (1/28)
Length of Visible Light 10h 49m
Length of Day
9h 48m
Full, 97% of the Moon is Illuminated
Jan 28
Full
Feb 3
Last Quarter
Feb 10
New
Feb 17
First Quarter
Feb 25
Full

Hourly Weather History & Observations

Time (MST) Temp. Windchill Dew Point Humidity Pressure Visibility Wind Dir Wind Speed Gust Speed Precip Events Conditions
12:53 AM 27.0 °F 16.7 °F 19.9 °F 75% 29.73 in 10.0 mi NE 11.5 mph - N/A   Overcast
1:53 AM 27.0 °F 18.0 °F 19.9 °F 75% 29.72 in 10.0 mi NNE 9.2 mph - N/A   Overcast
2:53 AM 26.1 °F 15.6 °F 18.0 °F 71% 29.74 in 10.0 mi NNE 11.5 mph - N/A   Overcast
3:41 AM 26.6 °F 15.7 °F 17.6 °F 69% 29.71 in 10.0 mi NNE 12.7 mph - N/A   Overcast
3:53 AM 26.1 °F 16.2 °F 18.0 °F 71% 29.71 in 10.0 mi NNE 10.4 mph - N/A   Overcast
4:53 AM 25.0 °F 18.1 °F 19.0 °F 78% 29.75 in 5.0 mi NE 5.8 mph - 0.01 in Snow Light Snow
5:27 AM 24.8 °F 19.1 °F 19.4 °F 80% 29.72 in 2.5 mi North 4.6 mph - 0.00 in Snow Light Snow
5:45 AM 24.8 °F 17.9 °F 19.4 °F 80% 29.72 in 4.0 mi NNE 5.8 mph - 0.00 in Snow Light Snow
5:53 AM 24.1 °F 18.2 °F 19.9 °F 84% 29.77 in 4.0 mi North 4.6 mph - 0.01 in Snow Light Snow
6:16 AM 24.8 °F 16.1 °F 19.4 °F 80% 29.73 in 2.5 mi North 8.1 mph - 0.00 in Snow Light Snow
6:29 AM 24.8 °F 14.6 °F 19.4 °F 80% 29.73 in 1.8 mi North 10.4 mph - 0.00 in Snow Light Snow
6:53 AM 23.0 °F 11.7 °F 18.0 °F 81% 29.81 in 1.8 mi North 11.5 mph - 0.01 in Snow Light Snow
7:01 AM 23.0 °F 12.4 °F 17.6 °F 80% 29.73 in 2.0 mi North 10.4 mph - 0.00 in Snow Light Snow
7:12 AM 23.0 °F 13.1 °F 17.6 °F 80% 29.73 in 4.0 mi North 9.2 mph - 0.00 in Snow Light Snow
7:21 AM 23.0 °F 11.1 °F 17.6 °F 80% 29.73 in 5.0 mi North 12.7 mph - 0.00 in Snow Light Snow
7:53 AM 23.0 °F 11.7 °F 17.1 °F 78% 29.82 in 10.0 mi North 11.5 mph - 0.00 in   Overcast
8:53 AM 24.1 °F 14.4 °F 16.0 °F 71% 29.84 in 10.0 mi North 9.2 mph - N/A   Overcast
9:53 AM 25.0 °F 16.3 °F 17.1 °F 72% 29.84 in 10.0 mi NNE 8.1 mph - N/A   Overcast
10:53 AM 25.0 °F 16.3 °F 17.1 °F 72% 29.85 in 10.0 mi NNE 8.1 mph - N/A   Partly Cloudy
11:53 AM 26.1 °F - 18.0 °F 71% 29.84 in 10.0 mi Calm Calm - N/A   Overcast
12:53 PM 27.0 °F 23.0 °F 18.0 °F 69% 29.81 in 10.0 mi SSE 3.5 mph - N/A   Overcast
1:53 PM 28.0 °F 24.2 °F 17.1 °F 63% 29.79 in 10.0 mi ESE 3.5 mph - N/A   Overcast
2:53 PM 27.0 °F - 17.1 °F 66% 29.80 in 10.0 mi Calm Calm - N/A   Overcast
3:16 PM 26.6 °F 20.0 °F 19.4 °F 74% 29.72 in 10.0 mi SE 5.8 mph - N/A   Overcast
3:29 PM 26.6 °F 20.0 °F 19.4 °F 74% 29.72 in 10.0 mi SE 5.8 mph - N/A   Overcast
3:53 PM 26.1 °F - 19.0 °F 75% 29.82 in 10.0 mi Calm Calm - N/A   Overcast
4:21 PM 26.6 °F 22.6 °F 19.4 °F 74% 29.72 in 10.0 mi SSW 3.5 mph - N/A   Overcast
4:53 PM 26.1 °F - 19.9 °F 78% 29.82 in 3.0 mi Calm Calm - 0.00 in Snow Light Snow
4:55 PM 26.6 °F - 19.4 °F 74% 29.73 in 2.5 mi Calm Calm - 0.00 in Snow Light Snow
5:03 PM 26.6 °F - 19.4 °F 74% 29.73 in 1.5 mi Calm Calm - 0.00 in Snow Light Snow
5:09 PM 24.8 °F - 19.4 °F 80% 29.73 in 3.0 mi Calm Calm - 0.00 in Snow Light Snow
5:22 PM 24.8 °F - 19.4 °F 80% 29.72 in 10.0 mi Calm Calm - 0.00 in   Mostly Cloudy
5:53 PM 21.0 °F 14.6 °F 17.1 °F 85% 29.85 in 10.0 mi ENE 4.6 mph - 0.00 in   Clear
6:53 PM 21.9 °F - 17.1 °F 82% 29.86 in 10.0 mi Calm Calm - N/A   Clear
7:53 PM 21.9 °F 13.4 °F 14.0 °F 72% 29.87 in 10.0 mi Variable 6.9 mph - N/A   Clear
8:53 PM 19.9 °F 6.7 °F 6.1 °F 55% 29.86 in 10.0 mi WNW 13.8 mph - N/A   Clear
9:53 PM 19.9 °F 4.8 °F 3.0 °F 48% 29.84 in 10.0 mi WNW 18.4 mph - N/A   Clear
10:53 PM 21.0 °F 5.4 °F 1.9 °F 44% 29.83 in 10.0 mi WNW 20.7 mph 31.1 mph N/A   Clear
11:53 PM 19.9 °F 3.9 °F 1.9 °F 46% 29.83 in 10.0 mi WNW 20.7 mph - N/A   Clear